contact:dominique.lefevre@mio.osupytheas.fr, maurice.libes@osupytheas.fr, didier.mallarino@osupytheas.fr
Project:EMSO http://www.emso-fr.org/EMSO-France
Depth: 2436.0 m
Title:EMSO Ligure Ouest : Data MII capteur CSTAR
DateTime,Latitude,Longitude,Instrument_Serial,Reference_Counts,Signal_Counts,Corrected_Signal_raw_counts,Calculated_Beam_c_inverse_meters,Internal_thermistor_counts
DateTime,Latitude,Longitude,Instrument_Serial,Reference_Counts,Signal_Counts,Corrected_Signal_raw_counts,Calculated_Beam_c_inverse_meters,Internal_thermistor_counts
2019-09-07T00:01:43,42.805,6.029,CST-1368DR,8062,11289,15401,0.055,551
2019-09-07T00:04:45,42.805,6.029,CST-1368DR,8062,11288,15400,0.056,551
2019-09-07T00:07:46,42.805,6.029,CST-1368DR,8062,11278,15386,0.059,551
2019-09-07T00:10:48,42.805,6.029,CST-1368DR,8062,11288,15400,0.056,551
2019-09-07T00:13:50,42.805,6.029,CST-1368DR,8062,11287,15399,0.056,551
2019-09-07T00:16:52,42.805,6.029,CST-1368DR,8062,11287,15399,0.056,551
2019-09-07T00:19:53,42.805,6.029,CST-1368DR,8062,11288,15400,0.056,551
2019-09-07T00:22:55,42.805,6.029,CST-1368DR,8062,11288,15400,0.056,550
2019-09-07T00:25:57,42.805,6.029,CST-1368DR,8062,11287,15398,0.056,551
2019-09-07T00:28:58,42.805,6.029,CST-1368DR,8062,11288,15399,0.056,551
2019-09-07T00:32:00,42.805,6.029,CST-1368DR,8062,11288,15400,0.056,551
2019-09-07T00:35:01,42.805,6.029,CST-1368DR,8062,11287,15398,0.056,551
2019-09-07T00:38:03,42.805,6.029,CST-1368DR,8062,11288,15400,0.056,551
2019-09-07T00:41:05,42.805,6.029,CST-1368DR,8062,11287,15398,0.056,550
2019-09-07T00:44:06,42.805,6.029,CST-1368DR,8062,11287,15399,0.056,551
2019-09-07T00:47:08,42.805,6.029,CST-1368DR,8061,11286,15399,0.056,551
2019-09-07T00:50:10,42.805,6.029,CST-1368DR,8061,11287,15401,0.055,551
2019-09-07T00:53:11,42.805,6.029,CST-1368DR,8062,11288,15399,0.056,551
2019-09-07T00:56:13,42.805,6.029,CST-1368DR,8062,11288,15400,0.056,551
2019-09-07T00:59:14,42.805,6.029,CST-1368DR,8062,11288,15399,0.056,551
2019-09-07T01:02:16,42.805,6.029,CST-1368DR,8062,11287,15399,0.056,551
2019-09-07T01:05:18,42.805,6.029,CST-1368DR,8061,11288,15401,0.055,551
2019-09-07T01:08:19,42.805,6.029,CST-1368DR,8062,11289,15401,0.055,551
2019-09-07T01:11:21,42.805,6.029,CST-1368DR,8061,11287,15401,0.055,551
2019-09-07T01:14:23,42.805,6.029,CST-1368DR,8061,11285,15398,0.056,551
2019-09-07T01:17:24,42.805,6.029,CST-1368DR,8061,11288,15401,0.055,551
2019-09-07T01:20:26,42.805,6.029,CST-1368DR,8061,11288,15401,0.055,551
2019-09-07T01:23:28,42.805,6.029,CST-1368DR,8061,11287,15400,0.056,551
2019-09-07T01:26:29,42.805,6.029,CST-1368DR,8061,11287,15400,0.056,551
2019-09-07T01:29:31,42.805,6.029,CST-1368DR,8061,11286,15399,0.056,551
2019-09-07T01:32:32,42.805,6.029,CST-1368DR,8061,11287,15400,0.056,550
2019-09-07T01:35:34,42.805,6.029,CST-1368DR,8061,11287,15400,0.056,550
2019-09-07T01:38:36,42.805,6.029,CST-1368DR,8061,11286,15399,0.056,551
2019-09-07T01:41:37,42.805,6.029,CST-1368DR,8061,11287,15400,0.056,551
2019-09-07T01:44:39,42.805,6.029,CST-1368DR,8061,11285,15397,0.056,551
2019-09-07T01:47:41,42.805,6.029,CST-1368DR,8061,11285,15398,0.056,551
2019-09-07T01:50:42,42.805,6.029,CST-1368DR,8061,11286,15399,0.056,551
2019-09-07T01:53:44,42.805,6.029,CST-1368DR,8061,11287,15400,0.056,551
2019-09-07T01:56:46,42.805,6.029,CST-1368DR,8061,11287,15400,0.056,551
2019-09-07T01:59:47,42.805,6.029,CST-1368DR,8061,11286,15399,0.056,551
2019-09-07T02:02:49,42.805,6.029,CST-1368DR,8061,11286,15399,0.056,551
2019-09-07T02:05:50,42.805,6.029,CST-1368DR,8061,11287,15400,0.056,551
2019-09-07T02:08:52,42.805,6.029,CST-1368DR,8061,11287,15400,0.056,551
2019-09-07T02:11:54,42.805,6.029,CST-1368DR,8061,11286,15399,0.056,551
2019-09-07T02:14:55,42.805,6.029,CST-1368DR,8061,11287,15401,0.055,551
2019-09-07T02:17:57,42.805,6.029,CST-1368DR,8061,11286,15399,0.056,551
2019-09-07T02:20:59,42.805,6.029,CST-1368DR,8061,11287,15400,0.056,551
2019-09-07T02:24:00,42.805,6.029,CST-1368DR,8061,11287,15400,0.056,551
2019-09-07T02:27:02,42.805,6.029,CST-1368DR,8061,11287,15400,0.056,551
2019-09-07T02:30:03,42.805,6.029,CST-1368DR,8061,11287,15400,0.056,551
2019-09-07T02:33:05,42.805,6.029,CST-1368DR,8061,11286,15399,0.056,550
2019-09-07T02:36:07,42.805,6.029,CST-1368DR,8061,11287,15400,0.056,551
2019-09-07T02:39:09,42.805,6.029,CST-1368DR,8061,11287,15400,0.056,551
2019-09-07T02:42:10,42.805,6.029,CST-1368DR,8061,11285,15397,0.056,551
2019-09-07T02:45:12,42.805,6.029,CST-1368DR,8061,11286,15399,0.056,551
2019-09-07T02:48:14,42.805,6.029,CST-1368DR,8061,11286,15399,0.056,551
2019-09-07T02:51:15,42.805,6.029,CST-1368DR,8061,11287,15400,0.056,551
2019-09-07T02:54:17,42.805,6.029,CST-1368DR,8061,11286,15399,0.056,551
2019-09-07T02:57:18,42.805,6.029,CST-1368DR,8061,11287,15400,0.056,551
2019-09-07T03:00:20,42.805,6.029,CST-1368DR,8061,11287,15400,0.056,550
2019-09-07T03:03:22,42.805,6.029,CST-1368DR,8061,11287,15400,0.056,550
2019-09-07T03:06:23,42.805,6.029,CST-1368DR,8061,11287,15400,0.056,551
2019-09-07T03:09:25,42.805,6.029,CST-1368DR,8061,11286,15399,0.056,551
2019-09-07T03:12:27,42.805,6.029,CST-1368DR,8061,11286,15399,0.056,551
2019-09-07T03:15:28,42.805,6.029,CST-1368DR,8060,11286,15401,0.055,551
2019-09-07T03:18:30,42.805,6.029,CST-1368DR,8060,11286,15400,0.056,550
2019-09-07T03:21:32,42.805,6.029,CST-1368DR,8060,11286,15401,0.055,551
2019-09-07T03:24:33,42.805,6.029,CST-1368DR,8060,11286,15401,0.055,551
2019-09-07T03:27:35,42.805,6.029,CST-1368DR,8060,11286,15400,0.056,551
2019-09-07T03:30:37,42.805,6.029,CST-1368DR,8060,11285,15399,0.056,551
2019-09-07T03:33:38,42.805,6.029,CST-1368DR,8060,11286,15401,0.055,550
2019-09-07T03:36:40,42.805,6.029,CST-1368DR,8060,11286,15401,0.055,551
2019-09-07T03:39:41,42.805,6.029,CST-1368DR,8060,11285,15399,0.056,551
2019-09-07T03:42:43,42.805,6.029,CST-1368DR,8060,11286,15400,0.056,551
2019-09-07T03:45:45,42.805,6.029,CST-1368DR,8060,11285,15399,0.056,551
2019-09-07T03:48:46,42.805,6.029,CST-1368DR,8060,11286,15400,0.056,551
2019-09-07T03:51:48,42.805,6.029,CST-1368DR,8060,11286,15400,0.056,551
2019-09-07T03:54:50,42.805,6.029,CST-1368DR,8060,11286,15401,0.055,551
2019-09-07T03:57:51,42.805,6.029,CST-1368DR,8060,11286,15401,0.055,551
2019-09-07T04:00:53,42.805,6.029,CST-1368DR,8060,11285,15399,0.056,551
2019-09-07T04:03:54,42.805,6.029,CST-1368DR,8060,11287,15401,0.055,551
2019-09-07T04:06:56,42.805,6.029,CST-1368DR,8060,11286,15401,0.055,551
2019-09-07T04:09:58,42.805,6.029,CST-1368DR,8060,11286,15401,0.055,551
2019-09-07T04:13:00,42.805,6.029,CST-1368DR,8060,11286,15400,0.056,551
2019-09-07T04:16:01,42.805,6.029,CST-1368DR,8060,11285,15399,0.056,550
2019-09-07T04:19:03,42.805,6.029,CST-1368DR,8060,11286,15401,0.055,551
2019-09-07T04:22:05,42.805,6.029,CST-1368DR,8060,11284,15398,0.056,551
2019-09-07T04:25:06,42.805,6.029,CST-1368DR,8060,11286,15400,0.056,551
2019-09-07T04:28:08,42.805,6.029,CST-1368DR,8060,11285,15399,0.056,551
2019-09-07T04:31:10,42.805,6.029,CST-1368DR,8060,11286,15400,0.056,551
2019-09-07T04:34:12,42.805,6.029,CST-1368DR,8060,11286,15400,0.056,551
2019-09-07T04:37:13,42.805,6.029,CST-1368DR,8060,11285,15399,0.056,551
2019-09-07T04:40:15,42.805,6.029,CST-1368DR,8060,11285,15399,0.056,551
2019-09-07T04:43:17,42.805,6.029,CST-1368DR,8060,11286,15400,0.056,551
2019-09-07T04:46:19,42.805,6.029,CST-1368DR,8060,11286,15400,0.056,551
2019-09-07T04:49:20,42.805,6.029,CST-1368DR,8060,11286,15400,0.056,551
2019-09-07T04:52:22,42.805,6.029,CST-1368DR,8060,11285,15399,0.056,551
2019-09-07T04:55:23,42.805,6.029,CST-1368DR,8060,11286,15400,0.056,551
2019-09-07T04:58:25,42.805,6.029,CST-1368DR,8060,11284,15398,0.056,551
2019-09-07T05:01:27,42.805,6.029,CST-1368DR,8060,11285,15399,0.056,551
2019-09-07T05:04:28,42.805,6.029,CST-1368DR,8060,11285,15399,0.056,551
2019-09-07T05:07:30,42.805,6.029,CST-1368DR,8060,11286,15400,0.056,551
2019-09-07T05:10:32,42.805,6.029,CST-1368DR,8060,11285,15399,0.056,551
2019-09-07T05:13:33,42.805,6.029,CST-1368DR,8060,11285,15399,0.056,551
2019-09-07T05:16:35,42.805,6.029,CST-1368DR,8060,11286,15400,0.056,550
2019-09-07T05:19:37,42.805,6.029,CST-1368DR,8060,11286,15400,0.056,551
2019-09-07T05:22:38,42.805,6.029,CST-1368DR,8060,11286,15400,0.056,551
2019-09-07T05:25:40,42.805,6.029,CST-1368DR,8060,11285,15399,0.056,550
2019-09-07T05:28:41,42.805,6.029,CST-1368DR,8060,11284,15397,0.056,551
2019-09-07T05:31:43,42.805,6.029,CST-1368DR,8059,11283,15398,0.056,551
2019-09-07T05:34:45,42.805,6.029,CST-1368DR,8059,11285,15401,0.055,551
2019-09-07T05:37:46,42.805,6.029,CST-1368DR,8059,11284,15400,0.056,551
2019-09-07T05:40:48,42.805,6.029,CST-1368DR,8059,11286,15402,0.055,551
2019-09-07T05:43:50,42.805,6.029,CST-1368DR,8059,11285,15401,0.055,551
2019-09-07T05:46:51,42.805,6.029,CST-1368DR,8059,11285,15401,0.055,551
2019-09-07T05:49:53,42.805,6.029,CST-1368DR,8059,11284,15400,0.056,551
2019-09-07T05:52:55,42.805,6.029,CST-1368DR,8059,11284,15400,0.056,551
2019-09-07T05:55:56,42.805,6.029,CST-1368DR,8060,11285,15399,0.056,551
2019-09-07T05:58:58,42.805,6.029,CST-1368DR,8059,11285,15401,0.055,551
2019-09-07T06:01:59,42.805,6.029,CST-1368DR,8059,11285,15401,0.055,551
2019-09-07T06:05:01,42.805,6.029,CST-1368DR,8059,11285,15401,0.055,551
2019-09-07T06:08:03,42.805,6.029,CST-1368DR,8059,11284,15400,0.056,551
2019-09-07T06:11:04,42.805,6.029,CST-1368DR,8059,11284,15400,0.056,550
2019-09-07T06:14:06,42.805,6.029,CST-1368DR,8059,11284,15400,0.056,551
2019-09-07T06:17:08,42.805,6.029,CST-1368DR,8059,11285,15401,0.055,551
2019-09-07T06:20:09,42.805,6.029,CST-1368DR,8059,11284,15400,0.056,550
2019-09-07T06:23:11,42.805,6.029,CST-1368DR,8059,11283,15398,0.056,551
2019-09-07T06:26:13,42.805,6.029,CST-1368DR,8059,11285,15401,0.055,551
2019-09-07T06:29:14,42.805,6.029,CST-1368DR,8059,11285,15401,0.055,551
2019-09-07T06:32:16,42.805,6.029,CST-1368DR,8059,11284,15400,0.056,551
2019-09-07T06:35:17,42.805,6.029,CST-1368DR,8059,11285,15401,0.055,551
2019-09-07T06:38:19,42.805,6.029,CST-1368DR,8059,11284,15400,0.056,551
2019-09-07T06:41:21,42.805,6.029,CST-1368DR,8059,11284,15400,0.056,551
2019-09-07T06:44:23,42.805,6.029,CST-1368DR,8059,11284,15400,0.056,551
2019-09-07T06:47:24,42.805,6.029,CST-1368DR,8059,11285,15401,0.055,551
2019-09-07T06:50:26,42.805,6.029,CST-1368DR,8059,11285,15401,0.055,551
2019-09-07T06:53:28,42.805,6.029,CST-1368DR,8059,11284,15400,0.056,551
2019-09-07T06:56:29,42.805,6.029,CST-1368DR,8059,11284,15400,0.056,551
2019-09-07T06:59:31,42.805,6.029,CST-1368DR,8059,11285,15401,0.055,551
2019-09-07T07:02:32,42.805,6.029,CST-1368DR,8059,11284,15400,0.056,551
2019-09-07T07:05:34,42.805,6.029,CST-1368DR,8059,11284,15400,0.056,550
2019-09-07T07:08:36,42.805,6.029,CST-1368DR,8059,11285,15401,0.055,551
2019-09-07T07:11:37,42.805,6.029,CST-1368DR,8059,11285,15401,0.055,551
2019-09-07T07:14:39,42.805,6.029,CST-1368DR,8059,11285,15401,0.055,551
2019-09-07T07:17:41,42.805,6.029,CST-1368DR,8059,11283,15398,0.056,551
2019-09-07T07:20:42,42.805,6.029,CST-1368DR,8059,11284,15400,0.056,551
2019-09-07T07:23:44,42.805,6.029,CST-1368DR,8059,11284,15400,0.056,551
2019-09-07T07:26:46,42.805,6.029,CST-1368DR,8059,11284,15400,0.056,551
2019-09-07T07:29:47,42.805,6.029,CST-1368DR,8059,11285,15401,0.055,551
2019-09-07T07:32:49,42.805,6.029,CST-1368DR,8059,11285,15401,0.055,550
2019-09-07T07:35:51,42.805,6.029,CST-1368DR,8059,11285,15401,0.055,551
2019-09-07T07:38:52,42.805,6.029,CST-1368DR,8059,11285,15401,0.055,551
2019-09-07T07:41:54,42.805,6.029,CST-1368DR,8059,11284,15399,0.056,550
2019-09-07T07:44:56,42.805,6.029,CST-1368DR,8059,11284,15399,0.056,551
2019-09-07T07:47:57,42.805,6.029,CST-1368DR,8059,11283,15399,0.056,551
2019-09-07T07:50:59,42.805,6.029,CST-1368DR,8059,11284,15399,0.056,551
2019-09-07T07:54:01,42.805,6.029,CST-1368DR,8059,11284,15400,0.056,551
2019-09-07T07:57:03,42.805,6.029,CST-1368DR,8059,11283,15398,0.056,551
2019-09-07T08:00:04,42.805,6.029,CST-1368DR,8059,11284,15399,0.056,551
2019-09-07T08:03:06,42.805,6.029,CST-1368DR,8059,11284,15399,0.056,551
2019-09-07T08:06:07,42.805,6.029,CST-1368DR,8059,11284,15400,0.056,551
2019-09-07T08:09:09,42.805,6.029,CST-1368DR,8059,11284,15400,0.056,551
2019-09-07T08:12:11,42.805,6.029,CST-1368DR,8059,11284,15399,0.056,551
2019-09-07T08:15:12,42.805,6.029,CST-1368DR,8059,11284,15400,0.056,551
2019-09-07T08:18:14,42.805,6.029,CST-1368DR,8059,11283,15398,0.056,551
2019-09-07T08:21:16,42.805,6.029,CST-1368DR,8059,11284,15399,0.056,551
2019-09-07T08:24:17,42.805,6.029,CST-1368DR,8059,11284,15400,0.056,550
2019-09-07T08:27:19,42.805,6.029,CST-1368DR,8059,11282,15397,0.056,551
2019-09-07T08:30:21,42.805,6.029,CST-1368DR,8059,11283,15398,0.056,551
2019-09-07T08:33:22,42.805,6.029,CST-1368DR,8059,11284,15400,0.056,551
2019-09-07T08:36:24,42.805,6.029,CST-1368DR,8058,11283,15401,0.055,551
2019-09-07T08:39:25,42.805,6.029,CST-1368DR,8058,11284,15402,0.055,551
2019-09-07T08:42:27,42.805,6.029,CST-1368DR,8059,11284,15400,0.056,551
2019-09-07T08:45:29,42.805,6.029,CST-1368DR,8058,11284,15401,0.055,551
2019-09-07T08:48:30,42.805,6.029,CST-1368DR,8058,11283,15400,0.056,551
2019-09-07T08:51:32,42.805,6.029,CST-1368DR,8058,11284,15402,0.055,551
2019-09-07T08:54:34,42.805,6.029,CST-1368DR,8058,11284,15402,0.055,551
2019-09-07T08:57:35,42.805,6.029,CST-1368DR,8059,11283,15398,0.056,551
2019-09-07T09:00:37,42.805,6.029,CST-1368DR,8058,11284,15402,0.055,551
2019-09-07T09:03:39,42.805,6.029,CST-1368DR,8058,11284,15402,0.055,551
2019-09-07T09:06:40,42.805,6.029,CST-1368DR,8058,11283,15400,0.056,551
2019-09-07T09:09:42,42.805,6.029,CST-1368DR,8058,11283,15400,0.056,551
2019-09-07T09:12:43,42.805,6.029,CST-1368DR,8058,11284,15401,0.055,551
2019-09-07T09:15:45,42.805,6.029,CST-1368DR,8058,11284,15401,0.055,551
2019-09-07T09:18:47,42.805,6.029,CST-1368DR,8058,11284,15401,0.055,551
2019-09-07T09:21:48,42.805,6.029,CST-1368DR,8058,11284,15401,0.055,551
2019-09-07T09:24:50,42.805,6.029,CST-1368DR,8058,11284,15401,0.055,551
2019-09-07T09:27:52,42.805,6.029,CST-1368DR,8058,11284,15401,0.055,551
2019-09-07T09:30:53,42.805,6.029,CST-1368DR,8058,11284,15401,0.055,551
2019-09-07T09:33:55,42.805,6.029,CST-1368DR,8058,11283,15400,0.056,551
2019-09-07T09:36:56,42.805,6.029,CST-1368DR,8058,11284,15401,0.055,551
2019-09-07T09:39:58,42.805,6.029,CST-1368DR,8058,11284,15401,0.055,550
2019-09-07T09:43:00,42.805,6.029,CST-1368DR,8058,11284,15401,0.055,551
2019-09-07T09:46:01,42.805,6.029,CST-1368DR,8058,11284,15401,0.055,551
2019-09-07T09:49:03,42.805,6.029,CST-1368DR,8058,11283,15400,0.056,551
2019-09-07T09:52:05,42.805,6.029,CST-1368DR,8058,11283,15401,0.055,551
2019-09-07T09:55:06,42.805,6.029,CST-1368DR,8058,11284,15401,0.055,551
2019-09-07T09:58:09,42.805,6.029,CST-1368DR,8058,11283,15400,0.056,550
2019-09-07T10:01:10,42.805,6.029,CST-1368DR,8058,11283,15400,0.056,551
2019-09-07T10:04:12,42.805,6.029,CST-1368DR,8058,11283,15400,0.056,551
2019-09-07T10:07:14,42.805,6.029,CST-1368DR,8058,11283,15400,0.056,551
2019-09-07T10:10:15,42.805,6.029,CST-1368DR,8058,11283,15400,0.056,551
2019-09-07T10:13:17,42.805,6.029,CST-1368DR,8058,11284,15401,0.055,551
2019-09-07T10:16:18,42.805,6.029,CST-1368DR,8058,11282,15399,0.056,551
2019-09-07T10:19:20,42.805,6.029,CST-1368DR,8058,11284,15401,0.055,551
2019-09-07T10:22:22,42.805,6.029,CST-1368DR,8058,11283,15400,0.056,551
2019-09-07T10:25:23,42.805,6.029,CST-1368DR,8058,11283,15400,0.056,551
2019-09-07T10:28:25,42.805,6.029,CST-1368DR,8058,11283,15400,0.056,551
2019-09-07T10:31:27,42.805,6.029,CST-1368DR,8058,11283,15401,0.055,550
2019-09-07T10:34:28,42.805,6.029,CST-1368DR,8058,11283,15400,0.056,551
2019-09-07T10:37:30,42.805,6.029,CST-1368DR,8058,11282,15399,0.056,550
2019-09-07T10:40:32,42.805,6.029,CST-1368DR,8058,11283,15401,0.055,551
2019-09-07T10:43:33,42.805,6.029,CST-1368DR,8058,11283,15401,0.055,551
2019-09-07T10:46:35,42.805,6.029,CST-1368DR,8058,11283,15401,0.055,551
2019-09-07T10:49:36,42.805,6.029,CST-1368DR,8058,11283,15400,0.056,551
2019-09-07T10:52:38,42.805,6.029,CST-1368DR,8058,11283,15401,0.055,551
2019-09-07T10:55:40,42.805,6.029,CST-1368DR,8058,11283,15400,0.056,551
2019-09-07T10:58:41,42.805,6.029,CST-1368DR,8058,11283,15401,0.055,551
2019-09-07T11:01:43,42.805,6.029,CST-1368DR,8058,11284,15402,0.055,551
2019-09-07T11:04:45,42.805,6.029,CST-1368DR,8057,11283,15402,0.055,551
2019-09-07T11:07:46,42.805,6.029,CST-1368DR,8058,11283,15400,0.056,551
2019-09-07T11:10:48,42.805,6.029,CST-1368DR,8057,11283,15402,0.055,551
2019-09-07T11:13:50,42.805,6.029,CST-1368DR,8058,11283,15401,0.055,551
2019-09-07T11:16:51,42.805,6.029,CST-1368DR,8058,11283,15400,0.056,551
2019-09-07T11:19:53,42.805,6.029,CST-1368DR,8057,11282,15401,0.055,551
2019-09-07T11:22:54,42.805,6.029,CST-1368DR,8057,11283,15402,0.055,551
2019-09-07T11:25:56,42.805,6.029,CST-1368DR,8057,11282,15400,0.056,551
2019-09-07T11:28:58,42.805,6.029,CST-1368DR,8057,11283,15402,0.055,551
2019-09-07T11:31:59,42.805,6.029,CST-1368DR,8057,11283,15402,0.055,551
2019-09-07T11:35:01,42.805,6.029,CST-1368DR,8057,11282,15401,0.055,551
2019-09-07T11:38:03,42.805,6.029,CST-1368DR,8057,11280,15398,0.056,551
2019-09-07T11:41:04,42.805,6.029,CST-1368DR,8057,11284,15403,0.055,551
2019-09-07T11:44:06,42.805,6.029,CST-1368DR,8057,11284,15403,0.055,551
2019-09-07T11:47:08,42.805,6.029,CST-1368DR,8057,11283,15401,0.055,551
2019-09-07T11:50:09,42.805,6.029,CST-1368DR,8057,11283,15402,0.055,550
2019-09-07T11:53:11,42.805,6.029,CST-1368DR,8057,11283,15402,0.055,551
2019-09-07T11:56:12,42.805,6.029,CST-1368DR,8057,11283,15402,0.055,551
2019-09-07T11:59:14,42.805,6.029,CST-1368DR,8057,11283,15401,0.055,551
2019-09-07T12:02:16,42.805,6.029,CST-1368DR,8057,11283,15402,0.055,551
2019-09-07T12:05:17,42.805,6.029,CST-1368DR,8057,11282,15401,0.055,551
2019-09-07T12:08:19,42.805,6.029,CST-1368DR,8057,11283,15402,0.055,551
2019-09-07T12:11:21,42.805,6.029,CST-1368DR,8057,11283,15402,0.055,551
2019-09-07T12:14:22,42.805,6.029,CST-1368DR,8057,11282,15401,0.055,551
2019-09-07T12:17:24,42.805,6.029,CST-1368DR,8057,11283,15402,0.055,551
2019-09-07T12:20:26,42.805,6.029,CST-1368DR,8057,11283,15402,0.055,551
2019-09-07T12:23:27,42.805,6.029,CST-1368DR,8057,11283,15402,0.055,550
2019-09-07T12:26:29,42.805,6.029,CST-1368DR,8057,11283,15401,0.055,551
2019-09-07T12:29:31,42.805,6.029,CST-1368DR,8057,11282,15400,0.056,551
2019-09-07T12:32:32,42.805,6.029,CST-1368DR,8057,11283,15401,0.055,551
2019-09-07T12:35:34,42.805,6.029,CST-1368DR,8057,11283,15402,0.055,551
2019-09-07T12:38:36,42.805,6.029,CST-1368DR,8057,11282,15400,0.056,551
2019-09-07T12:41:37,42.805,6.029,CST-1368DR,8057,11281,15399,0.056,551
2019-09-07T12:44:39,42.805,6.029,CST-1368DR,8057,11282,15401,0.055,551
2019-09-07T12:47:40,42.805,6.029,CST-1368DR,8057,11282,15400,0.056,551
2019-09-07T12:50:42,42.805,6.029,CST-1368DR,8057,11281,15399,0.056,551
2019-09-07T12:53:44,42.805,6.029,CST-1368DR,8057,11282,15400,0.056,551
2019-09-07T12:56:45,42.805,6.029,CST-1368DR,8057,11281,15399,0.056,551
2019-09-07T12:59:47,42.805,6.029,CST-1368DR,8057,11283,15402,0.055,551
2019-09-07T13:02:49,42.805,6.029,CST-1368DR,8057,11283,15401,0.055,551
2019-09-07T13:05:50,42.805,6.029,CST-1368DR,8057,11281,15400,0.056,551
2019-09-07T13:08:52,42.805,6.029,CST-1368DR,8057,11281,15400,0.056,551
2019-09-07T13:11:53,42.805,6.029,CST-1368DR,8057,11281,15400,0.056,551
2019-09-07T13:14:55,42.805,6.029,CST-1368DR,8057,11282,15401,0.055,551
2019-09-07T13:17:57,42.805,6.029,CST-1368DR,8057,11282,15401,0.055,551
2019-09-07T13:20:58,42.805,6.029,CST-1368DR,8057,11281,15400,0.056,551
2019-09-07T13:24:00,42.805,6.029,CST-1368DR,8057,11282,15400,0.056,551
2019-09-07T13:27:02,42.805,6.029,CST-1368DR,8057,11283,15401,0.055,551
2019-09-07T13:30:03,42.805,6.029,CST-1368DR,8057,11282,15400,0.056,551
2019-09-07T13:33:05,42.805,6.029,CST-1368DR,8057,11281,15399,0.056,551
2019-09-07T13:36:07,42.805,6.029,CST-1368DR,8057,11281,15400,0.056,551
2019-09-07T13:39:08,42.805,6.029,CST-1368DR,8057,11281,15399,0.056,551
2019-09-07T13:42:10,42.805,6.029,CST-1368DR,8057,11282,15400,0.056,550
2019-09-07T13:45:11,42.805,6.029,CST-1368DR,8057,11282,15400,0.056,551
2019-09-07T13:48:13,42.805,6.029,CST-1368DR,8057,11282,15400,0.056,551
2019-09-07T13:51:15,42.805,6.029,CST-1368DR,8057,11281,15399,0.056,551
2019-09-07T13:54:16,42.805,6.029,CST-1368DR,8057,11280,15398,0.056,551
2019-09-07T13:57:18,42.805,6.029,CST-1368DR,8057,11283,15401,0.055,551
2019-09-07T14:00:20,42.805,6.029,CST-1368DR,8057,11282,15401,0.055,551
2019-09-07T14:03:21,42.805,6.029,CST-1368DR,8057,11282,15400,0.056,551
2019-09-07T14:06:23,42.805,6.029,CST-1368DR,8057,11281,15400,0.056,551
2019-09-07T14:09:25,42.805,6.029,CST-1368DR,8057,11282,15400,0.056,551
2019-09-07T14:12:26,42.805,6.029,CST-1368DR,8057,11282,15400,0.056,551
2019-09-07T14:15:28,42.805,6.029,CST-1368DR,8057,11282,15400,0.056,551
2019-09-07T14:18:30,42.805,6.029,CST-1368DR,8057,11282,15400,0.056,551
2019-09-07T14:21:31,42.805,6.029,CST-1368DR,8057,11281,15400,0.056,551
2019-09-07T14:24:33,42.805,6.029,CST-1368DR,8057,11282,15400,0.056,551
2019-09-07T14:27:34,42.805,6.029,CST-1368DR,8057,11282,15400,0.056,551
2019-09-07T14:30:36,42.805,6.029,CST-1368DR,8057,11282,15400,0.056,550
2019-09-07T14:33:38,42.805,6.029,CST-1368DR,8057,11281,15400,0.056,551
2019-09-07T14:36:39,42.805,6.029,CST-1368DR,8057,11281,15399,0.056,551
2019-09-07T14:39:41,42.805,6.029,CST-1368DR,8057,11282,15400,0.056,551
2019-09-07T14:42:43,42.805,6.029,CST-1368DR,8057,11282,15400,0.056,551
2019-09-07T14:45:44,42.805,6.029,CST-1368DR,8056,11278,15396,0.057,551
2019-09-07T14:48:46,42.805,6.029,CST-1368DR,8056,11281,15400,0.056,551
2019-09-07T14:51:48,42.805,6.029,CST-1368DR,8056,11282,15403,0.055,551
2019-09-07T14:54:49,42.805,6.029,CST-1368DR,8056,11282,15403,0.055,551
2019-09-07T14:57:51,42.805,6.029,CST-1368DR,8056,11282,15402,0.055,551
2019-09-07T15:00:52,42.805,6.029,CST-1368DR,8056,11282,15402,0.055,551
2019-09-07T15:03:54,42.805,6.029,CST-1368DR,8056,11282,15402,0.055,550
2019-09-07T15:06:56,42.805,6.029,CST-1368DR,8056,11281,15401,0.055,551
2019-09-07T15:09:57,42.805,6.029,CST-1368DR,8056,11282,15402,0.055,551
2019-09-07T15:12:59,42.805,6.029,CST-1368DR,8056,11281,15401,0.055,551
2019-09-07T15:16:01,42.805,6.029,CST-1368DR,8056,11281,15400,0.056,551
2019-09-07T15:19:02,42.805,6.029,CST-1368DR,8056,11281,15401,0.055,551
2019-09-07T15:22:04,42.805,6.029,CST-1368DR,8056,11281,15401,0.055,551
2019-09-07T15:25:06,42.805,6.029,CST-1368DR,8056,11282,15402,0.055,551
2019-09-07T15:28:08,42.805,6.029,CST-1368DR,8056,11281,15401,0.055,550
2019-09-07T15:31:10,42.805,6.029,CST-1368DR,8056,11281,15401,0.055,551
2019-09-07T15:34:11,42.805,6.029,CST-1368DR,8056,11281,15401,0.055,551
2019-09-07T15:37:13,42.805,6.029,CST-1368DR,8056,11280,15400,0.056,551
2019-09-07T15:40:15,42.805,6.029,CST-1368DR,8056,11281,15401,0.055,550
2019-09-07T15:43:16,42.805,6.029,CST-1368DR,8056,11281,15401,0.055,551
2019-09-07T15:46:18,42.805,6.029,CST-1368DR,8056,11281,15401,0.055,551
2019-09-07T15:49:20,42.805,6.029,CST-1368DR,8056,11281,15401,0.055,551
2019-09-07T15:52:21,42.805,6.029,CST-1368DR,8056,11282,15402,0.055,551
2019-09-07T15:55:23,42.805,6.029,CST-1368DR,8056,11281,15400,0.056,551
2019-09-07T15:58:25,42.805,6.029,CST-1368DR,8056,11281,15400,0.056,551
2019-09-07T16:01:26,42.805,6.029,CST-1368DR,8056,11280,15399,0.056,551
2019-09-07T16:04:28,42.805,6.029,CST-1368DR,8056,11280,15400,0.056,551
2019-09-07T16:07:30,42.805,6.029,CST-1368DR,8056,11281,15400,0.056,551
2019-09-07T16:10:31,42.805,6.029,CST-1368DR,8056,11280,15400,0.056,551
2019-09-07T16:13:33,42.805,6.029,CST-1368DR,8056,11281,15401,0.055,551
2019-09-07T16:16:34,42.805,6.029,CST-1368DR,8056,11281,15401,0.055,550
2019-09-07T16:19:36,42.805,6.029,CST-1368DR,8056,11280,15399,0.056,551
2019-09-07T16:22:38,42.805,6.029,CST-1368DR,8056,11281,15401,0.055,551
2019-09-07T16:25:39,42.805,6.029,CST-1368DR,8056,11280,15399,0.056,551
2019-09-07T16:28:41,42.805,6.029,CST-1368DR,8056,11281,15401,0.055,551
2019-09-07T16:31:43,42.805,6.029,CST-1368DR,8056,11281,15401,0.055,551
2019-09-07T16:34:44,42.805,6.029,CST-1368DR,8056,11280,15399,0.056,551
2019-09-07T16:37:46,42.805,6.029,CST-1368DR,8056,11281,15401,0.055,551